STARLINK-1111 (44924 NORAD) Tracking and Keplerian Element Data

This shows tracking and keplerian element data for the satellite.

Feedback or suggestion? Click here.




ElementValue
Catalog44924
NameSTARLINK-1111
Epoch Orbit2738
Epoch Day187.50002315
Epoch Year2020
RAAN293.5285
Inclination52.9992
Eccentricity0.0001339
Argument of Perigee118.3093
Mean Anonmoly272.6771
Mean Motion15.05589292
Decay Rate-0.00030884
L11 44924U 20001L 20187.50002315 -.00030884 00000-0 -21092-2 0 9991
L22 44924 52.9992 293.5285 0001339 118.3093 272.6771 15.05589292 27384

Live tracking and technical data element details for STARLINK-1111 (NORAD 44924). STARLINK-1111 can be tracked NOW for your location showing map with azimuth and elevation plus other details from your city location.

Track the satellite on the map from your city or location and see movement details for azimuth, elevation, latitude, longitude, range, height, and movement on the map or in text.







IsCatalogInMostPopularTable: catalog: 44924, numindb: 36
Update: records affected: 1



GetName: 44924 STARLINK-1111

Hit Count: updated at: Mon, 06 Jul 2020 05:35:23 GMT